,,,PA_Meas_PMT16A,,PR_Meas_QMR101_102,,RH_Meas_QMH101,,SR_Meas_QMS101,,TA_Meas_QMH101,,GenWind,,GenWind,
date,time,status,PA,status,PR,status,RH,status,SR,status,TA,status,DirAvg,status,SpdAvg,
2008-11-01, 00:00:04,VALID,1004.58,VALID,0,VALID,83.9787,VALID,0,VALID,26.0401,VALID,26,VALID,1.52266,
2008-11-01, 00:01:04,VALID,1004.56,VALID,0,VALID,83.8185,VALID,0,VALID,26.1005,VALID,52,VALID,1.0668,
2008-11-01, 00:02:04,VALID,1004.56,VALID,0,VALID,83.849,VALID,0,VALID,26.081,VALID,21,VALID,1.7793,
2008-11-01, 00:03:04,VALID,1004.54,VALID,0,VALID,83.9329,VALID,0,VALID,26.0596,VALID,26,VALID,1.31758,
2008-11-01, 00:04:04,VALID,1004.53,VALID,0,VALID,84.055,VALID,0,VALID,26.0635,VALID,355,VALID,1.05781,
2008-11-01, 00:05:04,VALID,1004.51,VALID,0,VALID,83.9635,VALID,0,VALID,26.0421,VALID,23,VALID,1.48594,
2008-11-01, 00:06:04,VALID,1004.5,VALID,0,VALID,83.8872,VALID,0,VALID,26.0401,VALID,16,VALID,2.19062,
2008-11-01, 00:07:04,VALID,1004.48,VALID,0,VALID,83.643,VALID,0,VALID,26.0596,VALID,18,VALID,1.51563,
2008-11-01, 00:08:04,VALID,1004.46,VALID,0,VALID,83.3913,VALID,0,VALID,26.0985,VALID,13,VALID,1.11523,
2008-11-01, 00:09:04,VALID,1004.49,VALID,0,VALID,83.0404,VALID,0,VALID,26.1784,VALID,6,VALID,1.77773,
2008-11-01, 00:10:04,VALID,1004.46,VALID,0,VALID,82.7962,VALID,0,VALID,26.2564,VALID,15,VALID,1.87188,
2008-11-01, 00:11:04,VALID,1004.43,VALID,0,VALID,82.5445,VALID,0,VALID,26.2759,VALID,31,VALID,1.59844,
2008-11-01, 00:12:04,VALID,1004.45,VALID,0,VALID,82.4301,VALID,0,VALID,26.2953,VALID,22,VALID,1.92148,
2008-11-01, 00:13:04,VALID,1004.44,VALID,0,VALID,82.636,VALID,0,VALID,26.2544,VALID,15,VALID,0.979297,
2008-11-01, 00:14:04,VALID,1004.45,VALID,0,VALID,82.9793,VALID,0,VALID,26.2349,VALID,14,VALID,1.2043,
2008-11-01, 00:15:04,VALID,1004.46,VALID,0,VALID,82.781,VALID,0,VALID,26.2174,VALID,8,VALID,1.25547,
2008-11-01, 00:16:04,VALID,1004.47,VALID,0,VALID,82.7428,VALID,0,VALID,26.2369,VALID,6,VALID,1.45,
2008-11-01, 00:17:04,VALID,1004.45,VALID,0,VALID,82.7962,VALID,0,VALID,26.2369,VALID,24,VALID,1.06094,
2008-11-01, 00:18:04,VALID,1004.49,VALID,0,VALID,82.7581,VALID,0,VALID,26.2154,VALID,11,VALID,0.923828,
2008-11-01, 00:19:04,VALID,1004.5,VALID,0,VALID,82.7886,VALID,0,VALID,26.2174,VALID,14,VALID,0.718359,
2008-11-01, 00:20:04,VALID,1004.49,VALID,0,VALID,82.5903,VALID,0,VALID,26.1959,VALID,25,VALID,0.905859,
2008-11-01, 00:21:04,VALID,1004.52,VALID,0,VALID,82.6208,VALID,0,VALID,26.1765,VALID,3,VALID,0.858203,
2008-11-01, 00:22:04,VALID,1004.52,VALID,0,VALID,82.6208,VALID,0,VALID,26.1979,VALID,4,VALID,0.871875,
2008-11-01, 00:23:04,VALID,1004.5,VALID,0,VALID,82.3766,VALID,0,VALID,26.2369,VALID,15,VALID,1.01758,
2008-11-01, 00:24:04,VALID,1004.48,VALID,0,VALID,81.6824,VALID,0,VALID,26.2544,VALID,16,VALID,1.88125,
2008-11-01, 00:25:04,VALID,1004.47,VALID,0,VALID,81.6672,VALID,0,VALID,26.3538,VALID,23,VALID,1.35078,
2008-11-01, 00:26:04,VALID,1004.45,VALID,0,VALID,81.1331,VALID,0,VALID,26.3323,VALID,13,VALID,2.75508,
2008-11-01, 00:27:04,VALID,1004.5,VALID,0,VALID,81.4536,VALID,0,VALID,26.3927,VALID,19,VALID,1.11133,
2008-11-01, 00:28:04,VALID,1004.48,VALID,0,VALID,81.2628,VALID,0,VALID,26.3518,VALID,11,VALID,1.82305,
2008-11-01, 00:29:04,VALID,1004.48,VALID,0,VALID,81.5375,VALID,0,VALID,26.3323,VALID,16,VALID,0.923828,
2008-11-01, 00:30:04,VALID,1004.48,VALID,0,VALID,81.6672,VALID,0,VALID,26.3323,VALID,13,VALID,1.23906,
2008-11-01, 00:31:04,VALID,1004.52,VALID,0,VALID,81.5375,VALID,0,VALID,26.3538,VALID,17,VALID,1.11445,
2008-11-01, 00:32:04,VALID,1004.51,VALID,0,VALID,81.629,VALID,0,VALID,26.3148,VALID,30,VALID,1.43867,
2008-11-01, 00:33:04,VALID,1004.53,VALID,0,VALID,81.8655,VALID,0,VALID,26.2953,VALID,13,VALID,0.878906,
2008-11-01, 00:34:04,VALID,1004.52,VALID,0,VALID,81.7816,VALID,0,VALID,26.2544,VALID,25,VALID,0.710938,
2008-11-01, 00:35:04,VALID,1004.51,VALID,0,VALID,82.1096,VALID,0,VALID,26.2349,VALID,4,VALID,0.822266,
2008-11-01, 00:36:04,VALID,1004.56,VALID,0,VALID,82.0868,VALID,0,VALID,26.2369,VALID,14,VALID,0.68125,
2008-11-01, 00:37:04,VALID,1004.56,VALID,0,VALID,82.2851,VALID,0,VALID,26.157,VALID,347,VALID,0.933984,
2008-11-01, 00:38:04,VALID,1004.58,VALID,0,VALID,82.5521,VALID,0,VALID,26.159,VALID,4,VALID,0.713672,
2008-11-01, 00:39:04,VALID,1004.56,VALID,0,VALID,82.4301,VALID,0,VALID,26.1375,VALID,356,VALID,0.824219,
2008-11-01, 00:40:04,VALID,1004.57,VALID,0,VALID,82.514,VALID,0,VALID,26.118,VALID,9,VALID,0.9375,
2008-11-01, 00:41:04,VALID,1004.56,VALID,0,VALID,82.575,VALID,0,VALID,26.1395,VALID,350,VALID,0.838672,
2008-11-01, 00:42:04,VALID,1004.55,VALID,0,VALID,82.4301,VALID,0,VALID,26.0985,VALID,350,VALID,0.792188,
2008-11-01, 00:43:04,VALID,1004.55,VALID,0,VALID,82.5063,VALID,0,VALID,26.12,VALID,352,VALID,0.799609,
2008-11-01, 00:44:04,VALID,1004.48,VALID,0,VALID,82.4224,VALID,0,VALID,26.1395,VALID,359,VALID,0.978516,
2008-11-01, 00:45:04,VALID,1004.47,VALID,0,VALID,82.3156,VALID,0,VALID,26.118,VALID,350,VALID,0.778906,
2008-11-01, 00:46:04,VALID,1004.47,VALID,0,VALID,82.4377,VALID,0,VALID,26.118,VALID,352,VALID,0.887109,
2008-11-01, 00:47:04,VALID,1004.45,VALID,0,VALID,82.5292,VALID,0,VALID,26.12,VALID,352,VALID,0.733203,
2008-11-01, 00:48:04,VALID,1004.42,VALID,0,VALID,82.4377,VALID,0,VALID,26.1005,VALID,346,VALID,0.817969,
2008-11-01, 00:49:04,VALID,1004.42,VALID,0,VALID,82.4148,VALID,0,VALID,26.0791,VALID,338,VALID,1.18984,
2008-11-01, 00:50:04,VALID,1004.42,VALID,0,VALID,82.5063,VALID,0,VALID,26.12,VALID,349,VALID,0.912891,
2008-11-01, 00:51:04,VALID,1004.39,VALID,0,VALID,82.6513,VALID,0,VALID,26.0791,VALID,352,VALID,0.48125,
2008-11-01, 00:52:04,VALID,1004.38,VALID,0,VALID,82.9488,VALID,0,VALID,26.081,VALID,326,VALID,0.271875,
2008-11-01, 00:53:04,VALID,1004.34,VALID,0,VALID,82.987,VALID,0,VALID,26.0401,VALID,355,VALID,0.974219,
2008-11-01, 00:54:04,VALID,1004.32,VALID,0,VALID,83.109,VALID,0,VALID,26.0401,VALID,355,VALID,1.2332,
2008-11-01, 00:55:04,VALID,1004.32,VALID,0,VALID,83.1395,VALID,0,VALID,26.0401,VALID,356,VALID,0.873438,
2008-11-01, 00:56:04,VALID,1004.3,VALID,0,VALID,83.2692,VALID,0,VALID,26.0401,VALID,329,VALID,0.744531,
2008-11-01, 00:57:04,VALID,1004.28,VALID,0,VALID,83.2235,VALID,0,VALID,26.0616,VALID,338,VALID,0.820313,
2008-11-01, 00:58:04,VALID,1004.26,VALID,0,VALID,83.4371,VALID,0,VALID,26.0206,VALID,349,VALID,0.594531,
2008-11-01, 00:59:04,VALID,1004.28,VALID,0,VALID,83.4218,VALID,0,VALID,26.0031,VALID,349,VALID,0.782812,
2008-11-01, 01:00:04,VALID,1004.28,VALID,0,VALID,83.4065,VALID,0,VALID,26.0421,VALID,347,VALID,0.803125,
2008-11-01, 01:01:04,VALID,1004.29,VALID,0,VALID,83.5439,VALID,0,VALID,26.0226,VALID,340,VALID,0.487109,
2008-11-01, 01:02:04,VALID,1004.3,VALID,0,VALID,83.5744,VALID,0,VALID,25.9817,VALID,345,VALID,0.421484,
2008-11-01, 01:03:04,VALID,1004.33,VALID,0,VALID,83.6659,VALID,0,VALID,25.9836,VALID,354,VALID,1.11641,
2008-11-01, 01:04:04,VALID,1004.32,VALID,0,VALID,83.6736,VALID,0,VALID,25.9817,VALID,338,VALID,1.00117,
2008-11-01, 01:05:04,VALID,1004.32,VALID,0,VALID,83.8872,VALID,0,VALID,25.9836,VALID,350,VALID,0.802344,
2008-11-01, 01:06:04,VALID,1004.31,VALID,0,VALID,83.8109,VALID,0,VALID,25.9622,VALID,343,VALID,1.02969,
2008-11-01, 01:07:04,VALID,1004.27,VALID,0,VALID,83.9101,VALID,0,VALID,25.9622,VALID,360,VALID,1.08398,
2008-11-01, 01:08:04,VALID,1004.25,VALID,0,VALID,84.0321,VALID,0,VALID,25.9642,VALID,344,VALID,0.692187,
2008-11-01, 01:09:04,VALID,1004.21,VALID,0,VALID,84.2686,VALID,0,VALID,25.9232,VALID,354,VALID,0.747656,
2008-11-01, 01:10:04,VALID,1004.19,VALID,0,VALID,84.5127,VALID,0,VALID,25.8843,VALID,354,VALID,0.821484,
2008-11-01, 01:11:04,VALID,1004.19,VALID,0,VALID,84.6195,VALID,0,VALID,25.8863,VALID,350,VALID,0.806641,
2008-11-01, 01:12:04,VALID,1004.14,VALID,0,VALID,84.6119,VALID,0,VALID,25.8453,VALID,349,VALID,1.13789,
2008-11-01, 01:13:04,VALID,1004.13,VALID,0,VALID,84.7492,VALID,0,VALID,25.8453,VALID,341,VALID,1.12266,
2008-11-01, 01:14:04,VALID,1004.12,VALID,0,VALID,84.7263,VALID,0,VALID,25.8278,VALID,344,VALID,0.822266,
2008-11-01, 01:15:04,VALID,1004.12,VALID,0,VALID,84.8026,VALID,0,VALID,25.8064,VALID,345,VALID,0.848828,
2008-11-01, 01:16:04,VALID,1004.11,VALID,0,VALID,84.8789,VALID,0,VALID,25.7869,VALID,351,VALID,0.957422,
2008-11-01, 01:17:04,VALID,1004.08,VALID,0,VALID,84.856,VALID,0,VALID,25.7869,VALID,345,VALID,0.926172,
2008-11-01, 01:18:04,VALID,1004.07,VALID,0,VALID,84.8332,VALID,0,VALID,25.7869,VALID,356,VALID,1.31055,
2008-11-01, 01:19:04,VALID,1004.04,VALID,0,VALID,84.8713,VALID,0,VALID,25.8064,VALID,352,VALID,1.18633,
2008-11-01, 01:20:04,VALID,1004.05,VALID,0,VALID,84.856,VALID,0,VALID,25.8064,VALID,354,VALID,1.01094,
2008-11-01, 01:21:04,VALID,1004.05,VALID,0,VALID,84.8637,VALID,0,VALID,25.7889,VALID,9,VALID,1.60273,
2008-11-01, 01:22:04,VALID,1004,VALID,0,VALID,84.8484,VALID,0,VALID,25.8278,VALID,1,VALID,1.47344,
2008-11-01, 01:23:04,VALID,1004.01,VALID,0,VALID,84.8255,VALID,0,VALID,25.8278,VALID,340,VALID,0.979297,
2008-11-01, 01:24:04,VALID,1003.96,VALID,0,VALID,84.7645,VALID,0,VALID,25.8259,VALID,356,VALID,1.18203,
2008-11-01, 01:25:04,VALID,1003.92,VALID,0,VALID,84.856,VALID,0,VALID,25.8064,VALID,16,VALID,0.508984,
2008-11-01, 01:26:04,VALID,1003.9,VALID,0,VALID,85.0162,VALID,0,VALID,25.8278,VALID,353,VALID,0.678125,
2008-11-01, 01:27:04,VALID,1003.85,VALID,0,VALID,85.2299,VALID,0,VALID,25.8083,VALID,9,VALID,0.538672,
2008-11-01, 01:28:04,VALID,1003.82,VALID,0,VALID,85.2833,VALID,0,VALID,25.748,VALID,359,VALID,0.516016,
2008-11-01, 01:29:04,VALID,1003.78,VALID,0,VALID,85.474,VALID,0,VALID,25.7285,VALID,8,VALID,1.15039,
2008-11-01, 01:30:04,VALID,1003.8,VALID,0,VALID,85.5045,VALID,0,VALID,25.7499,VALID,4,VALID,0.762891,
2008-11-01, 01:31:04,VALID,1003.77,VALID,0,VALID,85.5045,VALID,0,VALID,25.7285,VALID,19,VALID,0.575781,
2008-11-01, 01:32:04,VALID,1003.77,VALID,0,VALID,85.6342,VALID,0,VALID,25.7109,VALID,8,VALID,0.739062,
2008-11-01, 01:33:04,VALID,1003.78,VALID,0,VALID,85.802,VALID,0,VALID,25.67,VALID,357,VALID,0.430469,
2008-11-01, 01:34:04,VALID,1003.77,VALID,0,VALID,85.9165,VALID,0,VALID,25.6506,VALID,15,VALID,0.546875,
2008-11-01, 01:35:04,VALID,1003.81,VALID,0,VALID,85.9699,VALID,0,VALID,25.6506,VALID,354,VALID,0.560156,
2008-11-01, 01:36:04,VALID,1003.71,VALID,0,VALID,86.008,VALID,0,VALID,25.6525,VALID,342,VALID,0.867578,
2008-11-01, 01:37:04,VALID,1003.73,VALID,0,VALID,86.0309,VALID,0,VALID,25.6311,VALID,332,VALID,0.514844,
2008-11-01, 01:38:04,VALID,1003.7,VALID,0,VALID,86.0538,VALID,0,VALID,25.6311,VALID,348,VALID,1.29414,
2008-11-01, 01:39:04,VALID,1003.7,VALID,0,VALID,85.9088,VALID,0,VALID,25.67,VALID,345,VALID,1.09336,
2008-11-01, 01:40:04,VALID,1003.71,VALID,0,VALID,85.9241,VALID,0,VALID,25.7109,VALID,356,VALID,1.11641,
2008-11-01, 01:41:04,VALID,1003.65,VALID,0,VALID,85.9317,VALID,0,VALID,25.6895,VALID,358,VALID,0.652344,
2008-11-01, 01:42:04,VALID,1003.66,VALID,0,VALID,85.9546,VALID,0,VALID,25.67,VALID,6,VALID,0.755078,
2008-11-01, 01:43:04,VALID,1003.65,VALID,0,VALID,85.9699,VALID,0,VALID,25.672,VALID,356,VALID,0.484766,
2008-11-01, 01:44:04,VALID,1003.66,VALID,0,VALID,86.0461,VALID,0,VALID,25.6506,VALID,354,VALID,0.769141,
2008-11-01, 01:45:04,VALID,1003.67,VALID,0,VALID,86.1224,VALID,0.100563,VALID,25.6311,VALID,358,VALID,0.829687,
2008-11-01, 01:46:04,VALID,1003.64,VALID,0,VALID,86.3055,VALID,0,VALID,25.633,VALID,353,VALID,0.497656,
2008-11-01, 01:47:04,VALID,1003.63,VALID,0,VALID,86.3284,VALID,0,VALID,25.5921,VALID,356,VALID,0.993359,
2008-11-01, 01:48:04,VALID,1003.64,VALID,0,VALID,86.4123,VALID,0,VALID,25.5727,VALID,346,VALID,1.10977,
2008-11-01, 01:49:04,VALID,1003.64,VALID,0,VALID,86.5268,VALID,0,VALID,25.5532,VALID,352,VALID,0.624219,
2008-11-01, 01:50:04,VALID,1003.66,VALID,0,VALID,86.5573,VALID,0,VALID,25.5532,VALID,18,VALID,0.617969,
2008-11-01, 01:51:04,VALID,1003.65,VALID,0,VALID,86.5878,VALID,0,VALID,25.5532,VALID,341,VALID,0.560156,
2008-11-01, 01:52:04,VALID,1003.64,VALID,0,VALID,86.748,VALID,0,VALID,25.5142,VALID,6,VALID,0.769922,
2008-11-01, 01:53:04,VALID,1003.68,VALID,0,VALID,86.8777,VALID,0,VALID,25.4753,VALID,350,VALID,0.957031,
2008-11-01, 01:54:04,VALID,1003.68,VALID,0,VALID,87.1066,VALID,0,VALID,25.4558,VALID,15,VALID,0.712109,
2008-11-01, 01:55:04,VALID,1003.68,VALID,0,VALID,87.1523,VALID,0,VALID,25.4558,VALID,347,VALID,0.746875,
2008-11-01, 01:56:04,VALID,1003.69,VALID,0,VALID,87.0455,VALID,0,VALID,25.4948,VALID,4,VALID,0.914453,
2008-11-01, 01:57:04,VALID,1003.7,VALID,0,VALID,86.9845,VALID,0,VALID,25.4948,VALID,7,VALID,0.412109,
2008-11-01, 01:58:04,VALID,1003.69,VALID,0,VALID,87.1218,VALID,0,VALID,25.4753,VALID,28,VALID,0.853125,
2008-11-01, 01:59:04,VALID,1003.72,VALID,0,VALID,87.0608,VALID,0,VALID,25.4948,VALID,338,VALID,0.677344,
2008-11-01, 02:00:04,VALID,1003.73,VALID,0,VALID,87.1142,VALID,0,VALID,25.5337,VALID,2,VALID,1.28164,
2008-11-01, 02:01:04,VALID,1003.72,VALID,0,VALID,86.9845,VALID,0,VALID,25.5532,VALID,3,VALID,0.428516,
2008-11-01, 02:02:04,VALID,1003.72,VALID,0,VALID,86.9692,VALID,0,VALID,25.5123,VALID,360,VALID,0.498828,
2008-11-01, 02:03:04,VALID,1003.71,VALID,0,VALID,87.0455,VALID,0,VALID,25.5337,VALID,360,VALID,0.610547,
2008-11-01, 02:04:04,VALID,1003.72,VALID,0,VALID,87.1523,VALID,0,VALID,25.5142,VALID,346,VALID,0.469141,
2008-11-01, 02:05:04,VALID,1003.73,VALID,0,VALID,87.3049,VALID,0,VALID,25.5162,VALID,12,VALID,0.754297,
2008-11-01, 02:06:04,VALID,1003.73,VALID,0,VALID,87.3049,VALID,0,VALID,25.4948,VALID,354,VALID,1.01563,
2008-11-01, 02:07:04,VALID,1003.72,VALID,0,VALID,87.3507,VALID,0,VALID,25.4948,VALID,4,VALID,0.720703,
2008-11-01, 02:08:04,VALID,1003.76,VALID,0,VALID,87.3049,VALID,0,VALID,25.5337,VALID,356,VALID,0.997266,
2008-11-01, 02:09:04,VALID,1003.77,VALID,0,VALID,87.0379,VALID,0,VALID,25.5532,VALID,349,VALID,0.688281,
2008-11-01, 02:10:04,VALID,1003.78,VALID,0,VALID,87.0684,VALID,0,VALID,25.5318,VALID,353,VALID,0.471484,
2008-11-01, 02:11:04,VALID,1003.81,VALID,0,VALID,87.2134,VALID,0,VALID,25.5337,VALID,11,VALID,0.785937,
2008-11-01, 02:12:04,VALID,1003.81,VALID,0,VALID,87.282,VALID,0,VALID,25.5123,VALID,53,VALID,0.664453,
2008-11-01, 02:13:04,VALID,1003.8,VALID,0,VALID,87.2973,VALID,0,VALID,25.5532,VALID,15,VALID,0.892187,
2008-11-01, 02:14:04,VALID,1003.81,VALID,0,VALID,87.343,VALID,0,VALID,25.5746,VALID,355,VALID,0.817969,
2008-11-01, 02:15:04,VALID,1003.81,VALID,0,VALID,87.2591,VALID,0,VALID,25.5727,VALID,11,VALID,0.928125,
2008-11-01, 02:16:04,VALID,1003.81,VALID,0,VALID,87.1752,VALID,0,VALID,25.633,VALID,44,VALID,0.966797,
2008-11-01, 02:17:04,VALID,1003.79,VALID,0,VALID,87.1294,VALID,0,VALID,25.6116,VALID,20,VALID,0.739453,
2008-11-01, 02:18:04,VALID,1003.78,VALID,0,VALID,87.1142,VALID,0,VALID,25.6116,VALID,14,VALID,1.3957,
2008-11-01, 02:19:04,VALID,1003.8,VALID,0,VALID,87.076,VALID,0,VALID,25.6506,VALID,18,VALID,0.557813,
2008-11-01, 02:20:04,VALID,1003.81,VALID,0,VALID,86.9311,VALID,0,VALID,25.6895,VALID,17,VALID,0.73125,
2008-11-01, 02:21:04,VALID,1003.81,VALID,0,VALID,86.6488,VALID,0,VALID,25.7304,VALID,347,VALID,1.19141,
2008-11-01, 02:22:04,VALID,1003.81,VALID,0,VALID,86.6717,VALID,0,VALID,25.748,VALID,20,VALID,0.924609,
2008-11-01, 02:23:04,VALID,1003.81,VALID,0,VALID,86.6183,VALID,0,VALID,25.7674,VALID,14,VALID,1.16055,
2008-11-01, 02:24:04,VALID,1003.82,VALID,0,VALID,86.4047,VALID,0,VALID,25.8064,VALID,331,VALID,0.799609,
2008-11-01, 02:25:04,VALID,1003.82,VALID,0,VALID,86.3132,VALID,0,VALID,25.8453,VALID,346,VALID,1.08789,
2008-11-01, 02:26:04,VALID,1003.85,VALID,0,VALID,86.2903,VALID,0.100563,VALID,25.8453,VALID,349,VALID,0.703516,
2008-11-01, 02:27:04,VALID,1003.87,VALID,0,VALID,86.3742,VALID,0,VALID,25.8453,VALID,349,VALID,0.912109,
2008-11-01, 02:28:04,VALID,1003.86,VALID,0,VALID,86.3437,VALID,0,VALID,25.8648,VALID,344,VALID,0.951563,
2008-11-01, 02:29:04,VALID,1003.89,VALID,0,VALID,86.2826,VALID,0,VALID,25.8843,VALID,26,VALID,1.07109,
2008-11-01, 02:30:04,VALID,1003.93,VALID,0,VALID,86.2521,VALID,0,VALID,25.8648,VALID,350,VALID,1.05195,
2008-11-01, 02:31:04,VALID,1003.92,VALID,0,VALID,86.2369,VALID,0,VALID,25.8648,VALID,345,VALID,0.743359,
2008-11-01, 02:32:04,VALID,1003.92,VALID,0,VALID,86.3513,VALID,0,VALID,25.8863,VALID,351,VALID,0.48125,
2008-11-01, 02:33:04,VALID,1003.93,VALID,0,VALID,86.4734,VALID,0,VALID,25.8668,VALID,353,VALID,0.574219,
2008-11-01, 02:34:04,VALID,1003.94,VALID,0,VALID,86.5878,VALID,0,VALID,25.8259,VALID,314,VALID,0.482812,
2008-11-01, 02:35:04,VALID,1003.93,VALID,0,VALID,86.7175,VALID,0,VALID,25.8064,VALID,256,VALID,0.182422,
2008-11-01, 02:36:04,VALID,1003.93,VALID,0,VALID,86.6183,VALID,0,VALID,25.8064,VALID,355,VALID,1.00234,
2008-11-01, 02:37:04,VALID,1003.9,VALID,0,VALID,86.6412,VALID,0,VALID,25.8259,VALID,349,VALID,0.896875,
2008-11-01, 02:38:04,VALID,1003.93,VALID,0,VALID,86.6336,VALID,0.100563,VALID,25.8453,VALID,344,VALID,0.657812,
2008-11-01, 02:39:04,VALID,1003.94,VALID,0,VALID,86.5878,VALID,0,VALID,25.8453,VALID,325,VALID,0.334375,
2008-11-01, 02:40:04,VALID,1003.97,VALID,0,VALID,86.481,VALID,0,VALID,25.8648,VALID,357,VALID,0.637109,
2008-11-01, 02:41:04,VALID,1003.96,VALID,0,VALID,86.5573,VALID,0,VALID,25.8648,VALID,343,VALID,0.4,
2008-11-01, 02:42:04,VALID,1003.95,VALID,0,VALID,86.6336,VALID,0,VALID,25.8453,VALID,2,VALID,0.565625,
2008-11-01, 02:43:04,VALID,1003.96,VALID,0,VALID,86.6336,VALID,0.100563,VALID,25.8453,VALID,354,VALID,0.740625,
2008-11-01, 02:44:04,VALID,1003.98,VALID,0,VALID,86.542,VALID,0,VALID,25.8453,VALID,343,VALID,1.0625,
2008-11-01, 02:45:04,VALID,1003.97,VALID,0,VALID,86.5649,VALID,0,VALID,25.8648,VALID,347,VALID,0.511328,
2008-11-01, 02:46:04,VALID,1003.94,VALID,0,VALID,86.42,VALID,0,VALID,25.8843,VALID,3,VALID,1.48867,
2008-11-01, 02:47:04,VALID,1003.94,VALID,0,VALID,86.4734,VALID,0,VALID,25.8843,VALID,350,VALID,0.867969,
2008-11-01, 02:48:04,VALID,1003.93,VALID,0,VALID,86.5649,VALID,0,VALID,25.9038,VALID,352,VALID,0.654297,
2008-11-01, 02:49:04,VALID,1003.91,VALID,0,VALID,86.4657,VALID,0,VALID,25.8648,VALID,346,VALID,0.676562,
2008-11-01, 02:50:04,VALID,1003.89,VALID,0,VALID,86.5725,VALID,0,VALID,25.9057,VALID,355,VALID,0.961328,
2008-11-01, 02:51:04,VALID,1003.87,VALID,0,VALID,86.6336,VALID,0.100563,VALID,25.9038,VALID,353,VALID,0.332422,
2008-11-01, 02:52:04,VALID,1003.87,VALID,0,VALID,86.5649,VALID,0,VALID,25.9232,VALID,21,VALID,1.39727,
2008-11-01, 02:53:04,VALID,1003.85,VALID,0,VALID,86.5191,VALID,0.100563,VALID,25.9427,VALID,31,VALID,0.462891,
2008-11-01, 02:54:04,VALID,1003.83,VALID,0,VALID,86.4047,VALID,0.100563,VALID,25.9408,VALID,360,VALID,0.648047,
2008-11-01, 02:55:04,VALID,1003.85,VALID,0,VALID,86.3742,VALID,0,VALID,25.9213,VALID,13,VALID,0.798828,
2008-11-01, 02:56:04,VALID,1003.81,VALID,0,VALID,86.275,VALID,0.100563,VALID,25.9642,VALID,332,VALID,0.713672,
2008-11-01, 02:57:04,VALID,1003.83,VALID,0,VALID,86.2292,VALID,0,VALID,25.9817,VALID,359,VALID,0.760938,
2008-11-01, 02:58:04,VALID,1003.84,VALID,0,VALID,86.1758,VALID,0,VALID,25.9817,VALID,344,VALID,0.666016,
2008-11-01, 02:59:04,VALID,1003.83,VALID,0,VALID,86.1529,VALID,0,VALID,26.0206,VALID,356,VALID,0.755859,
2008-11-01, 03:00:04,VALID,1003.83,VALID,0,VALID,86.1529,VALID,0.100563,VALID,26.0012,VALID,360,VALID,0.911719,
2008-11-01, 03:01:04,VALID,1003.82,VALID,0,VALID,86.2064,VALID,0,VALID,25.9797,VALID,350,VALID,1.10625,
2008-11-01, 03:02:04,VALID,1003.82,VALID,0,VALID,86.2216,VALID,0,VALID,26.0012,VALID,328,VALID,0.311719,
2008-11-01, 03:03:04,VALID,1003.79,VALID,0,VALID,86.1682,VALID,0,VALID,26.0012,VALID,355,VALID,0.516406,
2008-11-01, 03:04:04,VALID,1003.8,VALID,0,VALID,86.1148,VALID,0,VALID,26.0012,VALID,345,VALID,1.35234,
2008-11-01, 03:05:04,VALID,1003.79,VALID,0,VALID,86.1301,VALID,0,VALID,26.0206,VALID,346,VALID,0.785937,
2008-11-01, 03:06:04,VALID,1003.8,VALID,0,VALID,86.2292,VALID,0,VALID,26.0012,VALID,356,VALID,0.601563,
2008-11-01, 03:07:04,VALID,1003.79,VALID,0,VALID,86.3132,VALID,0,VALID,25.9817,VALID,345,VALID,0.905078,
2008-11-01, 03:08:04,VALID,1003.78,VALID,0,VALID,86.336,VALID,0.100563,VALID,25.9408,VALID,338,VALID,0.658984,
2008-11-01, 03:09:04,VALID,1003.8,VALID,0,VALID,86.481,VALID,0,VALID,25.9427,VALID,340,VALID,0.526563,
2008-11-01, 03:10:04,VALID,1003.77,VALID,0,VALID,86.6107,VALID,0.100563,VALID,25.9018,VALID,12,VALID,0.673828,
2008-11-01, 03:11:04,VALID,1003.79,VALID,0,VALID,86.748,VALID,0,VALID,25.9038,VALID,358,VALID,0.467969,
2008-11-01, 03:12:04,VALID,1003.78,VALID,0,VALID,86.8624,VALID,0,VALID,25.8843,VALID,349,VALID,0.69375,
2008-11-01, 03:13:04,VALID,1003.79,VALID,0,VALID,86.8472,VALID,0,VALID,25.8648,VALID,352,VALID,0.829687,
2008-11-01, 03:14:04,VALID,1003.81,VALID,0,VALID,86.9921,VALID,0,VALID,25.8648,VALID,352,VALID,0.641016,
2008-11-01, 03:15:04,VALID,1003.83,VALID,0,VALID,86.9311,VALID,0,VALID,25.8453,VALID,351,VALID,1.05938,
2008-11-01, 03:16:04,VALID,1003.85,VALID,0,VALID,86.9998,VALID,0,VALID,25.8259,VALID,347,VALID,0.54375,
2008-11-01, 03:17:04,VALID,1003.85,VALID,0,VALID,86.8929,VALID,0,VALID,25.8453,VALID,347,VALID,0.898047,
2008-11-01, 03:18:04,VALID,1003.87,VALID,0,VALID,86.9616,VALID,0,VALID,25.8453,VALID,349,VALID,0.632813,
2008-11-01, 03:19:04,VALID,1003.91,VALID,0,VALID,87.0837,VALID,0,VALID,25.8044,VALID,343,VALID,0.865234,
2008-11-01, 03:20:04,VALID,1003.95,VALID,0,VALID,87.2134,VALID,0,VALID,25.785,VALID,8,VALID,0.608203,
2008-11-01, 03:21:04,VALID,1003.96,VALID,0,VALID,87.282,VALID,0,VALID,25.7869,VALID,353,VALID,0.643359,
2008-11-01, 03:22:04,VALID,1003.97,VALID,0,VALID,87.427,VALID,0.100563,VALID,25.7674,VALID,348,VALID,0.568359,
2008-11-01, 03:23:04,VALID,1003.96,VALID,0,VALID,87.6024,VALID,0,VALID,25.748,VALID,348,VALID,0.597266,
2008-11-01, 03:24:04,VALID,1003.99,VALID,0,VALID,87.7855,VALID,0,VALID,25.709,VALID,355,VALID,0.737891,
2008-11-01, 03:25:04,VALID,1003.99,VALID,0,VALID,87.9457,VALID,0.100563,VALID,25.6876,VALID,357,VALID,0.713672,
2008-11-01, 03:26:04,VALID,1004,VALID,0,VALID,88.022,VALID,0,VALID,25.67,VALID,6,VALID,0.781641,
2008-11-01, 03:27:04,VALID,1004.02,VALID,0,VALID,88.1059,VALID,0,VALID,25.672,VALID,1,VALID,0.930078,
2008-11-01, 03:28:04,VALID,1004.04,VALID,0,VALID,88.0144,VALID,0,VALID,25.6506,VALID,351,VALID,0.945703,
2008-11-01, 03:29:04,VALID,1004.06,VALID,0,VALID,88.0449,VALID,0,VALID,25.672,VALID,345,VALID,0.707422,
2008-11-01, 03:30:04,VALID,1004.07,VALID,0,VALID,88.0678,VALID,0,VALID,25.6292,VALID,4,VALID,0.733203,
2008-11-01, 03:31:04,VALID,1004.06,VALID,0,VALID,87.9991,VALID,0,VALID,25.6506,VALID,357,VALID,1.07109,
2008-11-01, 03:32:04,VALID,1004.07,VALID,0,VALID,88.0296,VALID,0,VALID,25.6506,VALID,351,VALID,0.83125,
2008-11-01, 03:33:04,VALID,1004.09,VALID,0,VALID,87.9381,VALID,0,VALID,25.6506,VALID,356,VALID,1.46797,
2008-11-01, 03:34:04,VALID,1004.11,VALID,0,VALID,88.0296,VALID,0,VALID,25.6506,VALID,340,VALID,0.0195313,
2008-11-01, 03:35:04,VALID,1004.09,VALID,0,VALID,87.9076,VALID,0,VALID,25.6311,VALID,290,VALID,0.621875,
2008-11-01, 03:36:04,VALID,1004.08,VALID,0,VALID,87.6711,VALID,0,VALID,25.672,VALID,292,VALID,1.38203,
2008-11-01, 03:37:04,VALID,1004.1,VALID,0,VALID,87.5414,VALID,0,VALID,25.67,VALID,292,VALID,1.34023,
2008-11-01, 03:38:04,VALID,1004.1,VALID,0,VALID,87.4651,VALID,0,VALID,25.67,VALID,284,VALID,0.740234,
2008-11-01, 03:39:04,VALID,1004.09,VALID,0,VALID,87.6482,VALID,0,VALID,25.6895,VALID,279,VALID,0.496875,
2008-11-01, 03:40:04,VALID,1004.08,VALID,0,VALID,87.3278,VALID,0,VALID,25.6915,VALID,281,VALID,0.692578,
2008-11-01, 03:41:04,VALID,1004.09,VALID,0,VALID,87.4499,VALID,0,VALID,25.6506,VALID,299,VALID,0.461328,
2008-11-01, 03:42:04,VALID,1004.08,VALID,0,VALID,87.2286,VALID,0,VALID,25.6136,VALID,300,VALID,0.940625,
2008-11-01, 03:43:04,VALID,1004.06,VALID,0,VALID,87.3812,VALID,0,VALID,25.5532,VALID,297,VALID,0.676562,
2008-11-01, 03:44:04,VALID,1004.07,VALID,0,VALID,87.6558,VALID,0,VALID,25.5357,VALID,297,VALID,0.239063,
2008-11-01, 03:45:04,VALID,1004.12,VALID,0,VALID,87.7779,VALID,0,VALID,25.4753,VALID,310,VALID,0.509766,